Location: Banska Bystrica
(48.7333°N, 19.1500°E)
Time: 02:43:53
(UTC+01:00)

ISS - Visible Passes

Search period start: 16 December 2017 00:00
Search period end: 26 December 2017 00:00
Orbit: 402 x 406 km, 51.6° (Epoch: 16 December)

Date Brightness Start Highest point End Pass type
(mag) Time Alt. Az. Time Alt. Az. Time Alt. Az.
16 Dec -1.4 17:05:19 10° W 17:08:03 24° SW 17:10:47 10° SSE visible
18 Dec -0.4 16:58:13 10° WSW 16:59:42 13° SW 17:01:12 10° SSW visible
24 Dec 0.0 06:56:07 10° SSE 06:57:10 11° SE 06:58:13 10° ESE visible
